Time,TemperatureF,DewpointF,PressureIn,WindDirection,WindDirectionDegrees,WindSpeedMPH,WindSpeedGustMPH,Humidity,HourlyPrecipIn,Conditions,Clouds,dailyrainin,SoftwareType,DateUTC
2013-01-14 00:04:00,46.0,43.0,-100.00,SW,225,1.0,4.0,88,-99.99,,,-99.99,,2013-01-14 05:04:00,
2013-01-14 00:12:00,46.0,43.0,-100.00,WNW,295,2.0,5.0,88,-99.99,,,-99.99,,2013-01-14 05:12:00,
2013-01-14 00:22:00,46.0,43.0,-100.00,WNW,295,2.0,5.0,88,-99.99,,,-99.99,,2013-01-14 05:22:00,
2013-01-14 00:43:00,46.0,43.0,-100.00,South,180,2.0,4.0,88,-99.99,,,-99.99,,2013-01-14 05:43:00,
2013-01-14 00:52:00,46.0,43.0,-100.00,South,180,2.0,4.0,88,-99.99,,,-99.99,,2013-01-14 05:52:00,
2013-01-14 01:03:00,47.0,43.0,-100.00,SE,125,2.0,5.0,88,-99.99,,,-99.99,,2013-01-14 06:03:00,
2013-01-14 01:12:00,47.0,44.0,-100.00,SW,220,3.0,6.0,88,-99.99,,,-99.99,,2013-01-14 06:12:00,
2013-01-14 01:23:00,47.0,44.0,-100.00,SW,220,3.0,6.0,88,-99.99,,,-99.99,,2013-01-14 06:23:00,
2013-01-14 01:33:00,47.0,44.0,-100.00,SW,230,3.0,6.0,88,-99.99,,,-99.99,,2013-01-14 06:33:00,
2013-01-14 01:43:00,48.0,44.0,-100.00,SSE,165,3.0,8.0,88,-99.99,,,-99.99,,2013-01-14 06:43:00,
2013-01-14 01:53:00,48.0,44.0,-100.00,SSE,165,3.0,8.0,88,-99.99,,,-99.99,,2013-01-14 06:53:00,
2013-01-14 02:02:00,48.0,45.0,-100.00,SSW,210,3.0,7.0,88,-99.99,,,-99.99,,2013-01-14 07:02:00,
2013-01-14 02:12:00,48.0,44.0,-100.00,WSW,245,1.0,9.0,88,-99.99,,,-99.99,,2013-01-14 07:12:00,
2013-01-14 02:23:00,48.0,44.0,-100.00,WSW,245,1.0,9.0,88,-99.99,,,-99.99,,2013-01-14 07:23:00,
2013-01-14 02:33:00,48.0,45.0,-100.00,SW,215,4.0,9.0,88,-99.99,,,-99.99,,2013-01-14 07:33:00,
2013-01-14 02:43:00,48.0,44.0,-100.00,SW,225,2.0,8.0,88,-99.99,,,-99.99,,2013-01-14 07:43:00,
2013-01-14 02:52:00,48.0,44.0,-100.00,SW,225,2.0,8.0,88,-99.99,,,-99.99,,2013-01-14 07:52:00,
2013-01-14 03:02:00,48.0,44.0,-100.00,South,190,0.0,9.0,88,-99.99,,,-99.99,,2013-01-14 08:02:00,
2013-01-14 03:12:00,48.0,44.0,-100.00,SSE,160,3.0,9.0,88,-99.99,,,-99.99,,2013-01-14 08:12:00,
2013-01-14 03:22:00,48.0,44.0,-100.00,SSE,160,3.0,9.0,88,-99.99,,,-99.99,,2013-01-14 08:22:00,
2013-01-14 03:33:00,48.0,44.0,-100.00,SSW,205,3.0,5.0,88,-99.99,,,-99.99,,2013-01-14 08:33:00,
2013-01-14 03:43:00,48.0,45.0,-100.00,SW,220,2.0,9.0,88,-99.99,,,-99.99,,2013-01-14 08:43:00,
2013-01-14 03:53:00,48.0,45.0,-100.00,SW,220,2.0,9.0,88,-99.99,,,-99.99,,2013-01-14 08:53:00,
2013-01-14 04:03:00,48.0,45.0,-100.00,NW,310,2.0,6.0,88,-99.99,,,-99.99,,2013-01-14 09:03:00,
2013-01-14 04:12:00,47.0,44.0,-100.00,NW,305,2.0,3.0,88,-99.99,,,-99.99,,2013-01-14 09:12:00,
2013-01-14 04:23:00,47.0,44.0,-100.00,NW,305,2.0,3.0,88,-99.99,,,-99.99,,2013-01-14 09:23:00,
2013-01-14 04:33:00,46.0,43.0,-100.00,WNW,295,3.0,4.0,88,-99.99,,,-99.99,,2013-01-14 09:33:00,
2013-01-14 04:43:00,46.0,43.0,-100.00,WNW,295,2.0,5.0,88,-99.99,,,-99.99,,2013-01-14 09:43:00,
2013-01-14 04:53:00,46.0,43.0,-100.00,WNW,295,2.0,5.0,88,-99.99,,,-99.99,,2013-01-14 09:53:00,
2013-01-14 05:03:00,46.0,43.0,-100.00,WNW,290,2.0,7.0,88,-99.99,,,-99.99,,2013-01-14 10:03:00,
2013-01-14 05:12:00,46.0,43.0,-100.00,WNW,290,1.0,4.0,88,-99.99,,,-99.99,,2013-01-14 10:12:00,
2013-01-14 05:23:00,46.0,43.0,-100.00,WNW,290,1.0,4.0,88,-99.99,,,-99.99,,2013-01-14 10:23:00,
2013-01-14 05:33:00,47.0,44.0,-100.00,SE,130,2.0,3.0,88,-99.99,,,-99.99,,2013-01-14 10:33:00,
2013-01-14 05:43:00,47.0,43.0,-100.00,SE,130,6.0,8.0,88,-99.99,,,-99.99,,2013-01-14 10:43:00,
2013-01-14 05:52:00,47.0,43.0,-100.00,SE,130,6.0,8.0,88,-99.99,,,-99.99,,2013-01-14 10:52:00,
2013-01-14 06:02:00,47.0,44.0,-100.00,SE,135,3.0,12.0,88,-99.99,,,-99.99,,2013-01-14 11:02:00,
2013-01-14 06:12:00,47.0,43.0,-100.00,ESE,115,5.0,16.0,88,-99.99,,,-99.99,,2013-01-14 11:12:00,
2013-01-14 06:22:00,47.0,43.0,-100.00,ESE,115,5.0,16.0,88,-99.99,,,-99.99,,2013-01-14 11:22:00,
2013-01-14 06:33:00,48.0,44.0,-100.00,SSW,210,3.0,15.0,88,-99.99,,,-99.99,,2013-01-14 11:33:00,
2013-01-14 06:43:00,48.0,44.0,-100.00,NW,315,5.0,8.0,88,-99.99,,,-99.99,,2013-01-14 11:43:00,
2013-01-14 06:53:00,48.0,44.0,-100.00,NW,315,5.0,8.0,88,-99.99,,,-99.99,,2013-01-14 11:53:00,
2013-01-14 07:03:00,48.0,44.0,-100.00,West,270,3.0,6.0,88,-99.99,,,-99.99,,2013-01-14 12:03:00,
2013-01-14 07:12:00,48.0,44.0,-100.00,NW,310,2.0,7.0,88,-99.99,,,-99.99,,2013-01-14 12:12:00,
2013-01-14 07:23:00,48.0,44.0,-100.00,NW,310,2.0,7.0,88,-99.99,,,-99.99,,2013-01-14 12:23:00,
2013-01-14 07:33:00,48.0,44.0,-100.00,NW,310,2.0,7.0,88,-99.99,,,-99.99,,2013-01-14 12:33:00,
2013-01-14 07:43:00,48.0,44.0,-100.00,WNW,285,3.0,6.0,88,-99.99,,,-99.99,,2013-01-14 12:43:00,
2013-01-14 07:53:00,48.0,44.0,-100.00,WNW,285,3.0,6.0,88,-99.99,,,-99.99,,2013-01-14 12:53:00,
2013-01-14 08:03:00,48.0,44.0,-100.00,WNW,285,3.0,8.0,88,-99.99,,,-99.99,,2013-01-14 13:03:00,
2013-01-14 08:13:00,48.0,44.0,-100.00,WSW,245,2.0,7.0,88,-99.99,,,-99.99,,2013-01-14 13:13:00,
2013-01-14 08:23:00,48.0,44.0,-100.00,WSW,245,2.0,7.0,88,-99.99,,,-99.99,,2013-01-14 13:23:00,
2013-01-14 08:33:00,48.0,44.0,-100.00,West,275,1.0,5.0,88,-99.99,,,-99.99,,2013-01-14 13:33:00,
2013-01-14 08:43:00,48.0,44.0,-100.00,WSW,245,3.0,9.0,88,-99.99,,,-99.99,,2013-01-14 13:43:00,
2013-01-14 08:53:00,48.0,44.0,-100.00,WSW,245,3.0,9.0,88,-99.99,,,-99.99,,2013-01-14 13:53:00,
2013-01-14 09:03:00,48.0,44.0,-100.00,West,270,3.0,6.0,88,-99.99,,,-99.99,,2013-01-14 14:03:00,
2013-01-14 09:13:00,48.0,44.0,-100.00,WNW,295,3.0,6.0,88,-99.99,,,-99.99,,2013-01-14 14:13:00,
2013-01-14 09:23:00,48.0,44.0,-100.00,WNW,295,3.0,6.0,88,-99.99,,,-99.99,,2013-01-14 14:23:00,
2013-01-14 09:33:00,48.0,44.0,-100.00,WNW,285,3.0,7.0,88,-99.99,,,-99.99,,2013-01-14 14:33:00,
2013-01-14 09:43:00,48.0,45.0,-100.00,WNW,295,3.0,6.0,88,-99.99,,,-99.99,,2013-01-14 14:43:00,
2013-01-14 09:53:00,48.0,45.0,-100.00,WNW,295,3.0,6.0,88,-99.99,,,-99.99,,2013-01-14 14:53:00,
2013-01-14 10:12:00,49.0,46.0,-100.00,WNW,300,3.0,7.0,88,-99.99,,,-99.99,,2013-01-14 15:12:00,
2013-01-14 10:23:00,49.0,46.0,-100.00,WNW,300,3.0,7.0,88,-99.99,,,-99.99,,2013-01-14 15:23:00,
2013-01-14 10:33:00,49.0,46.0,-100.00,WNW,300,4.0,9.0,88,-99.99,,,-99.99,,2013-01-14 15:33:00,
2013-01-14 10:43:00,49.0,46.0,-100.00,NW,305,4.0,8.0,88,-99.99,,,-99.99,,2013-01-14 15:43:00,
2013-01-14 10:53:00,49.0,46.0,-100.00,NW,305,4.0,8.0,88,-99.99,,,-99.99,,2013-01-14 15:53:00,
2013-01-14 11:03:00,50.0,46.0,-100.00,West,270,3.0,7.0,88,-99.99,,,-99.99,,2013-01-14 16:03:00,
2013-01-14 11:13:00,50.0,46.0,-100.00,WNW,295,3.0,7.0,88,-99.99,,,-99.99,,2013-01-14 16:13:00,
2013-01-14 11:23:00,50.0,46.0,-100.00,WNW,295,3.0,7.0,88,-99.99,,,-99.99,,2013-01-14 16:23:00,
2013-01-14 11:33:00,50.0,47.0,-100.00,WNW,295,4.0,8.0,88,-99.99,,,-99.99,,2013-01-14 16:33:00,
2013-01-14 11:43:00,50.0,47.0,-100.00,WNW,290,4.0,10.0,88,-99.99,,,-99.99,,2013-01-14 16:43:00,
2013-01-14 11:53:00,50.0,47.0,-100.00,WNW,290,4.0,10.0,88,-99.99,,,-99.99,,2013-01-14 16:53:00,
2013-01-14 12:12:00,49.0,46.0,-100.00,NW,320,5.0,13.0,88,-99.99,,,-99.99,,2013-01-14 17:12:00,
2013-01-14 12:23:00,49.0,46.0,-100.00,NW,320,5.0,13.0,88,-99.99,,,-99.99,,2013-01-14 17:23:00,
2013-01-14 12:33:00,49.0,45.0,-100.00,WNW,300,12.0,17.0,88,-99.99,,,-99.99,,2013-01-14 17:33:00,
2013-01-14 12:43:00,50.0,47.0,-100.00,NNW,335,6.0,12.0,88,-99.99,,,-99.99,,2013-01-14 17:43:00,
2013-01-14 12:54:00,50.0,47.0,-100.00,NNW,335,6.0,12.0,88,-99.99,,,-99.99,,2013-01-14 17:54:00,
2013-01-14 13:03:00,50.0,46.0,-100.00,North,0,9.0,16.0,87,-99.99,,,-99.99,,2013-01-14 18:03:00,
2013-01-14 13:13:00,51.0,43.0,-100.00,West,270,6.0,19.0,72,-99.99,,,-99.99,,2013-01-14 18:13:00,
2013-01-14 13:23:00,51.0,43.0,-100.00,West,270,6.0,19.0,72,-99.99,,,-99.99,,2013-01-14 18:23:00,
2013-01-14 13:33:00,51.0,36.0,-100.00,WNW,300,8.0,14.0,55,-99.99,,,-99.99,,2013-01-14 18:33:00,
2013-01-14 13:43:00,51.0,34.0,-100.00,NW,310,8.0,15.0,51,-99.99,,,-99.99,,2013-01-14 18:43:00,
2013-01-14 13:52:00,51.0,34.0,-100.00,NW,310,8.0,15.0,51,-99.99,,,-99.99,,2013-01-14 18:52:00,
2013-01-14 14:03:00,52.0,33.0,-100.00,WNW,290,5.0,16.0,49,-99.99,,,-99.99,,2013-01-14 19:03:00,
2013-01-14 14:13:00,51.0,32.0,-100.00,North,0,6.0,11.0,48,-99.99,,,-99.99,,2013-01-14 19:13:00,
2013-01-14 14:22:00,51.0,32.0,-100.00,North,0,6.0,11.0,48,-99.99,,,-99.99,,2013-01-14 19:22:00,
2013-01-14 14:33:00,50.0,32.0,-100.00,NNW,340,5.0,14.0,49,-99.99,,,-99.99,,2013-01-14 19:33:00,
2013-01-14 14:43:00,50.0,32.0,-100.00,NW,320,5.0,13.0,50,-99.99,,,-99.99,,2013-01-14 19:43:00,
2013-01-14 14:53:00,50.0,32.0,-100.00,NW,320,5.0,13.0,50,-99.99,,,-99.99,,2013-01-14 19:53:00,
2013-01-14 15:04:00,50.0,31.0,-100.00,NW,305,6.0,13.0,48,-99.99,,,-99.99,,2013-01-14 20:04:00,
2013-01-14 15:13:00,50.0,30.0,-100.00,NNW,335,5.0,15.0,46,-99.99,,,-99.99,,2013-01-14 20:13:00,
2013-01-14 15:23:00,50.0,30.0,-100.00,NNW,335,5.0,15.0,46,-99.99,,,-99.99,,2013-01-14 20:23:00,
2013-01-14 15:33:00,50.0,30.0,-100.00,NE,50,3.0,10.0,45,-99.99,,,-99.99,,2013-01-14 20:33:00,
2013-01-14 15:43:00,50.0,30.0,-100.00,NNW,335,7.0,16.0,45,-99.99,,,-99.99,,2013-01-14 20:43:00,
2013-01-14 15:53:00,50.0,30.0,-100.00,NNW,335,7.0,16.0,45,-99.99,,,-99.99,,2013-01-14 20:53:00,
2013-01-14 16:03:00,51.0,30.0,-100.00,NE,40,1.0,11.0,45,-99.99,,,-99.99,,2013-01-14 21:03:00,
2013-01-14 16:13:00,50.0,30.0,-100.00,NNW,345,4.0,10.0,46,-99.99,,,-99.99,,2013-01-14 21:13:00,
2013-01-14 16:23:00,50.0,30.0,-100.00,NNW,345,4.0,10.0,46,-99.99,,,-99.99,,2013-01-14 21:23:00,
2013-01-14 16:33:00,49.0,30.0,-100.00,North,5,4.0,11.0,48,-99.99,,,-99.99,,2013-01-14 21:33:00,
2013-01-14 16:43:00,48.0,29.0,-100.00,North,5,4.0,12.0,47,-99.99,,,-99.99,,2013-01-14 21:43:00,
2013-01-14 16:53:00,48.0,29.0,-100.00,North,5,4.0,12.0,47,-99.99,,,-99.99,,2013-01-14 21:53:00,
2013-01-14 17:03:00,47.0,29.0,-100.00,North,355,2.0,12.0,49,-99.99,,,-99.99,,2013-01-14 22:03:00,
2013-01-14 17:12:00,47.0,28.0,-100.00,NNE,15,2.0,12.0,49,-99.99,,,-99.99,,2013-01-14 22:12:00,
2013-01-14 17:23:00,47.0,28.0,-100.00,NNE,15,2.0,12.0,49,-99.99,,,-99.99,,2013-01-14 22:23:00,
2013-01-14 22:33:00,36.0,29.0,-100.00,North,0,3.0,7.0,74,-99.99,,,-99.99,,2013-01-15 03:33:00,
2013-01-14 22:42:00,36.0,29.0,-100.00,NNW,340,1.0,5.0,75,-99.99,,,-99.99,,2013-01-15 03:42:00,
2013-01-14 22:52:00,36.0,29.0,-100.00,NNW,340,1.0,5.0,75,-99.99,,,-99.99,,2013-01-15 03:52:00,
2013-01-14 23:12:00,35.0,29.0,-100.00,NE,35,1.0,4.0,78,-99.99,,,-99.99,,2013-01-15 04:12:00,
2013-01-14 23:22:00,35.0,29.0,-100.00,NE,35,1.0,4.0,78,-99.99,,,-99.99,,2013-01-15 04:22:00,
2013-01-14 23:33:00,35.0,29.0,-100.00,NW,305,2.0,6.0,78,-99.99,,,-99.99,,2013-01-15 04:33:00,
2013-01-14 23:42:00,35.0,28.0,-100.00,NNW,330,3.0,10.0,75,-99.99,,,-99.99,,2013-01-15 04:42:00,
2013-01-14 23:52:00,35.0,28.0,-100.00,NNW,330,3.0,10.0,75,-99.99,,,-99.99,,2013-01-15 04:52:00,